Crane, MT

2:25 AM MDT on August 29, 2016 (GMT -0600)
Sidney-Richland Municipal

Weather History for KSDY - May, 2013

Change the Weather History Date:

Monday, May 13, 2013

  Actual Average Record
Temperature  
Mean Temperature 73 °F -  
Max Temperature 89 °F 70 °F 96 °F (2001)
Min Temperature 57 °F 39 °F 25 °F (1953)
Cooling Degree Days 8    
Growing Degree Days 23 (Base 50)    
Moisture  
Dew Point 45 °F    
Average Humidity 40    
Maximum Humidity 72    
Minimum Humidity 20    
Precipitation  
Precipitation 0.01 in - - ()
Sea Level Pressure  
Sea Level Pressure 29.76 in    
Wind  
Wind Speed 11 mph (West)    
Max Wind Speed 25 mph    
Max Gust Speed 40 mph    
Visibility 10 miles    
Events Thunderstorm    
Averages and records for this station are not official NWS values.
T = Trace of Precipitation, MM = Missing Value Source: NWS Daily Summary

Daily Weather History Graph

Daily Weather History Graph

Search for Another Location

Airport or City:

Trip Planner

Search our weather history database for the weather conditions in past years. The results will help you decide how hot, cold, wet, or windy it might be!

Date:

Astronomy

May. 13, 2013 Rise Set
Actual Time 5:21 AM MDT 8:25 PM MDT
Civil Twilight 4:44 AM MDT 9:02 PM MDT
Nautical Twilight 3:57 AM MDT 9:49 PM MDT
Astronomical Twilight 2:59 AM MDT 10:48 PM MDT
Moon 8:07 AM MDT (5/13) 11:36 PM MDT (5/13)
Length of Visible Light 16h 17m
Length of Day
15h 04m
Waxing Crescent, 12% of the Moon is Illuminated
May 13
Waxing Crescent
May 17
First Quarter
May 24
Full
May 31
Last Quarter
Jun 8
New

Hourly Weather History & Observations

Time (MDT) Temp. Dew Point Humidity Pressure Visibility Wind Dir Wind Speed Gust Speed Precip Events Conditions
12:15 AM 60.8 °F 42.8 °F 52% 29.77 in 10.0 mi SSW 9.2 mph - N/A   Clear
12:35 AM 59.0 °F 42.8 °F 55% 29.77 in 10.0 mi SE 3.5 mph - N/A   Clear
12:55 AM 57.2 °F 42.8 °F 59% 29.77 in 10.0 mi SSE 4.6 mph - N/A   Clear
1:15 AM 57.2 °F 42.8 °F 59% 29.77 in 10.0 mi South 6.9 mph - N/A   Clear
1:35 AM 57.2 °F 42.8 °F 59% 29.77 in 10.0 mi South 6.9 mph - N/A   Clear
1:55 AM 57.2 °F 42.8 °F 59% 29.76 in 10.0 mi South 5.8 mph - N/A   Clear
2:15 AM 57.2 °F 42.8 °F 59% 29.76 in 10.0 mi South 3.5 mph - N/A   Clear
2:35 AM 57.2 °F 42.8 °F 59% 29.76 in 10.0 mi Calm Calm - N/A   Clear
2:55 AM 57.2 °F 42.8 °F 59% 29.77 in 1.5 mi SE 3.5 mph - N/A   Clear
3:15 AM 57.2 °F 42.8 °F 59% 29.77 in 2.5 mi Calm Calm - N/A   Clear
3:35 AM 66.2 °F 42.8 °F 43% 29.77 in 10.0 mi West 11.5 mph - N/A   Clear
3:55 AM 69.8 °F 42.8 °F 38% 29.77 in 10.0 mi West 16.1 mph - N/A   Clear
4:15 AM 71.6 °F 42.8 °F 35% 29.77 in 10.0 mi West 15.0 mph - N/A   Clear
4:35 AM 69.8 °F 42.8 °F 38% 29.78 in 10.0 mi West 15.0 mph - N/A   Clear
5:15 AM 68.0 °F 42.8 °F 40% 29.79 in 10.0 mi WNW 16.1 mph - N/A   Clear
5:35 AM 66.2 °F 42.8 °F 43% 29.80 in 10.0 mi West 16.1 mph - N/A   Clear
6:15 AM 66.2 °F 42.8 °F 43% 29.81 in 10.0 mi West 16.1 mph - N/A   Clear
6:35 AM 66.2 °F 44.6 °F 46% 29.82 in 10.0 mi West 15.0 mph - N/A   Clear
6:55 AM 68.0 °F 44.6 °F 43% 29.82 in 10.0 mi West 13.8 mph - N/A   Clear
7:15 AM 69.8 °F 44.6 °F 40% 29.83 in 10.0 mi West 15.0 mph - N/A   Clear
7:55 AM 71.6 °F 44.6 °F 38% 29.84 in 10.0 mi West 17.3 mph 24.2 mph N/A   Clear
8:15 AM 71.6 °F 46.4 °F 41% 29.84 in 10.0 mi WNW 17.3 mph 20.7 mph N/A   Clear
8:35 AM 71.6 °F 46.4 °F 41% 29.84 in 10.0 mi West 17.3 mph 20.7 mph N/A   Clear
8:55 AM 73.4 °F 46.4 °F 38% 29.84 in 10.0 mi WNW 19.6 mph 25.3 mph N/A   Clear
9:15 AM 73.4 °F 44.6 °F 36% 29.84 in 10.0 mi WNW 18.4 mph - N/A   Clear
9:35 AM 75.2 °F 46.4 °F 36% 29.84 in 10.0 mi West 15.0 mph 20.7 mph N/A   Clear
9:55 AM 77.0 °F 44.6 °F 32% 29.85 in 10.0 mi WNW 18.4 mph - N/A   Clear
10:15 AM 77.0 °F 44.6 °F 32% 29.85 in 10.0 mi West 19.6 mph 26.5 mph N/A   Clear
10:35 AM 80.6 °F 44.6 °F 28% 29.84 in 10.0 mi West 17.3 mph 24.2 mph N/A   Clear
10:55 AM 82.4 °F 44.6 °F 26% 29.84 in 10.0 mi WNW 21.9 mph 29.9 mph N/A   Clear
11:15 AM 82.4 °F 44.6 °F 26% 29.84 in 9.0 mi WNW 25.3 mph 33.4 mph N/A   Clear
12:15 PM 84.2 °F 44.6 °F 25% 29.83 in 10.0 mi West 21.9 mph 29.9 mph N/A   Clear
12:55 PM 86.0 °F 44.6 °F 23% 29.82 in 10.0 mi WSW 15.0 mph 25.3 mph N/A   Clear
1:35 PM 86.0 °F 44.6 °F 23% 29.81 in 10.0 mi West 16.1 mph 26.5 mph N/A   Clear
2:35 PM 87.8 °F 44.6 °F 22% 29.80 in 10.0 mi WNW 19.6 mph 29.9 mph N/A   Clear
3:15 PM 87.8 °F 44.6 °F 22% 29.78 in 10.0 mi West 18.4 mph 25.3 mph N/A   Clear
3:35 PM 89.6 °F 44.6 °F 21% 29.78 in 10.0 mi West 19.6 mph 26.5 mph N/A   Clear
3:55 PM 87.8 °F 42.8 °F 21% 29.76 in 10.0 mi West 17.3 mph 25.3 mph N/A   Partly Cloudy
4:15 PM 89.6 °F 42.8 °F 20% 29.75 in 10.0 mi West 16.1 mph 25.3 mph N/A   Partly Cloudy
4:35 PM 89.6 °F 42.8 °F 20% 29.74 in 10.0 mi WNW 20.7 mph 26.5 mph N/A   Clear
4:55 PM 89.6 °F 42.8 °F 20% 29.74 in 10.0 mi West 13.8 mph 24.2 mph N/A   Partly Cloudy
5:35 PM 89.6 °F 44.6 °F 21% 29.72 in 10.0 mi West 16.1 mph 20.7 mph N/A   Scattered Clouds
6:35 PM 87.8 °F 42.8 °F 21% 29.70 in 10.0 mi West 12.7 mph 18.4 mph N/A   Partly Cloudy
6:55 PM 87.8 °F 42.8 °F 21% 29.69 in 10.0 mi West 10.4 mph 16.1 mph N/A   Clear
7:15 PM 84.2 °F 44.6 °F 25% 29.67 in 10.0 mi West 6.9 mph - N/A   Clear
7:35 PM 82.4 °F 46.4 °F 28% 29.67 in 10.0 mi WSW 5.8 mph - N/A   Clear
7:55 PM 77.0 °F 46.4 °F 34% 29.66 in 10.0 mi SW 6.9 mph - N/A   Clear
8:15 PM 75.2 °F 46.4 °F 36% 29.65 in 10.0 mi SW 5.8 mph - N/A   Clear
8:35 PM 71.6 °F 46.4 °F 41% 29.64 in 10.0 mi Calm Calm - N/A   Clear
8:55 PM 71.6 °F 46.4 °F 41% 29.64 in 10.0 mi West 3.5 mph - N/A   Scattered Clouds
9:15 PM 77.0 °F 50.0 °F 39% 29.68 in 7.0 mi WSW 16.1 mph 40.3 mph N/A Thunderstorm Overcast
9:55 PM 66.2 °F 53.6 °F 64% 29.65 in 10.0 mi North 18.4 mph - 0.01 in   Clear
10:15 PM 66.2 °F 53.6 °F 64% 29.63 in 10.0 mi NNE 13.8 mph - N/A   Clear
10:35 PM 64.4 °F 53.6 °F 68% 29.62 in 10.0 mi NE 8.1 mph - N/A   Clear
11:15 PM 62.6 °F 53.6 °F 72% 29.58 in 10.0 mi Calm Calm - N/A   Clear
11:35 PM 62.6 °F 53.6 °F 72% 29.57 in 10.0 mi SE 4.6 mph - N/A   Clear